Regional Weather Roundup
Issued by NWS

Home | Current Version | Previous Version | Graphics & Text | Print | Product List | Glossary On
Versions: 1 2 3 4 5 6 7 8 9 10 11 12 13 14 15 16 17 18 19 20 21 22 23 24 25 26 27 28 29 30 31 32 33 34 35 36 37 38 39 40 41 42 43 44 45 46 47 48 49 50
000
ASUS43 KMPX 212110
RWRMN
WEATHER ROUNDUP FOR MINNESOTA
NATIONAL WEATHER SERVICE TWIN CITIES/CHANHASSEN MN
400 PM CDT TUE OCT 21 2014


NOTE: "FAIR" INDICATES FEW OR NO CLOUDS BELOW 12,000 FEET WITH NO
SIGNIFICANT WEATHER AND/OR OBSTRUCTIONS TO VISIBILITY. N/A MEANS
CURRENT SKY AND/OR WEATHER CONDITIONS ARE NOT AVAILABLE.

MNZ060>063-068>070-212200-
   Twin Cities Metro

CITY           SKY/WX    TMP DP  RH WIND       PRES   REMARKS
TWIN CITIES    SUNNY     57  40  52 E13       30.15F
ST PAUL        SUNNY     57  40  52 SE10      30.16F
CRYSTAL        SUNNY     58  39  49 SE10      30.13F
BLAINE         SUNNY     59  41  51 SE10      30.15F
LAKEVILLE      SUNNY     57  41  54 SE10      30.14F
EDEN PRAIRIE   SUNNY     59  41  51 E14       30.12F
SOUTH ST PAUL  SUNNY     58  39  49 SE7       30.15F
LAKE ELMO      FAIR      55  41  58 SE8       30.17S
$$
MNZ001>005-007-008-013>017-022>024-027-028-212200-
   Northwest Minnesota

CITY           SKY/WX    TMP DP  RH WIND       PRES   REMARKS
BEMIDJI        SUNNY     55  39  55 SE13G23   30.03F
HALLOCK        SUNNY     64  39  39 SE25G32   29.86F
ROSEAU         SUNNY     59  43  55 SE17G24   29.96F
WARROAD        SUNNY     57  43  58 SE15G23   29.99F
THIEF RVR FALL SUNNY     63  39  42 SE23      29.93F
CROOKSTON      SUNNY     64  41  42 S26       29.91F
FOSSTON        SUNNY     63  37  39 SE14G23   29.97F
DETROIT LAKES  SUNNY     59  41  51 SE25      29.98F
MOORHEAD       SUNNY     66  37  34 SE25G31   29.92S
PARK RAPIDS    SUNNY     58  38  47 SE18      30.03F
MAHNOMEN       FAIR      60  39  46 SE23G29   29.96F
$$
MNZ006-009>011-018-025>026-212200-
   North Central Minnesota

CITY           SKY/WX    TMP DP  RH WIND       PRES   REMARKS
BAUDETTE       SUNNY     55  37  50 SE16G24   30.02F
FLAG ISLAND    SUNNY     52  41  66 SE16      30.00S
INTL FALLS     SUNNY     49  35  58 SE15G21   30.10F
WASKISH        SUNNY     55  39  54 SE13G23   30.03F
BIG FORK       SUNNY     54  36  50 SE10G18   30.10F
LONGVILLE      SUNNY     55  37  50 SE12G21   30.08F
GRAND RAPIDS   SUNNY     52  36  54 SE12G20   30.12F
CRANE LAKE     SUNNY     46  36  66 SE6       30.18F
ORR            SUNNY     48  32  53 SE12      30.12F
COOK           SUNNY     46  36  66 SE12      30.16F
WALKER         FAIR      54  38  54 SE9G17    30.05F
$$
MNZ012-019>021-037-212200-
   Northeast Minnesota

CITY           SKY/WX    TMP DP  RH WIND       PRES   REMARKS
DULUTH         MOSUNNY   46  35  65 E15G21    30.19F
ELY            PTSUNNY   41  34  75 S8        30.20F
HIBBING        SUNNY     49  34  56 SE15      30.16F
EVELETH        SUNNY     45  34  65 E10       30.18F
DULUTH HARBOR  MOSUNNY   46  39  76 NE18      30.22S
TWO HARBORS    CLOUDY    46  28  49 E14       30.21F
SILVER BAY     PTSUNNY   43  36  75 E10       30.23S
GRAND MARAIS     N/A     44  33  65 E6        30.28F
G MARAIS ARPRT SUNNY     39  28  65 SE8       30.24F
$$
MNZ029>031-032-039>041-046>048-054>057-064-212200-
   West Central Minnesota

CITY           SKY/WX    TMP DP  RH WIND       PRES   REMARKS
FERGUS FALLS   SUNNY     63  37  39 SE23      29.98S
WHEATON        SUNNY     64  41  42 SE28G33   29.95F
MORRIS         SUNNY     64  41  42 SE23G29   29.99S
ALEXANDRIA     SUNNY     60  41  49 SE16G24   30.04F
ELBOW LAKE     FAIR      62  41  46 SE22G31   29.99S
WADENA         SUNNY     57  39  51 SE20      30.04S
GLENWOOD       SUNNY     61  41  48 SE17G24   30.04F
APPLETON       SUNNY     70  39  32 SE17G24   29.98F
BENSON         SUNNY     64  41  42 S17G26    30.01F
ORTONVILLE     SUNNY     70  39  32 SE18G25   29.95F
MADISON        SUNNY     73  39  29 SE16G25   29.97S
WILLMAR        FAIR      64  37  36 SE22G29   30.06F
$$
MNZ033>034-036-042>043-049>051-058-059-212200-
   Central Minnesota

CITY           SKY/WX    TMP DP  RH WIND       PRES   REMARKS
ST CLOUD       SUNNY     60  39  45 E12       30.11F
SAUK CENTRE    FAIR      59  40  50 SE16G24   30.06F
PAYNESVILLE    SUNNY     57  40  51 E16G23    30.08F
AITKIN         SUNNY     59  37  44 SE9       30.10F
PINE RIVER     SUNNY     54  41  62 SE16      30.11F
BRAINERD       SUNNY     54  39  57 SE9       30.10F
STAPLES        SUNNY     55  37  50 SE13      30.06F
LONG PRAIRIE   FAIR      57  39  51 E13G22    30.07F
LITTLE FALLS   SUNNY     55  36  47 SE16      30.09F
LITCHFIELD     SUNNY     63  43  48 SE16      30.09F
BUFFALO        SUNNY     58  39  50 E9        30.13F
MAPLE LAKE     SUNNY     59  43  56 SE8       30.12F
$$
MNZ037-044-045-052-053-212200-
   East Central Minnesota

CITY           SKY/WX    TMP DP  RH WIND       PRES   REMARKS
PRINCETON      SUNNY     59  39  47 SE14      30.13F
MORA           SUNNY     55  37  50 SE7       30.16F
CAMBRIDGE      SUNNY     57  41  54 E8        30.13F
RUSH CITY      SUNNY     57  38  49 SE7       30.15F
MOOSE LAKE     SUNNY     55  34  44 E7        30.14F
HINCKLEY       FAIR      55  37  50 SE5       30.16S
CLOQUET        SUNNY     46  36  66 E12G18    30.18S
MCGREGOR       SUNNY     55  36  47 SE12      30.14F
$$
MNZ071>073-080-081-089-090-097-098-212200-
   Southwest Minnesota

CITY           SKY/WX    TMP DP  RH WIND       PRES   REMARKS
MONTEVIDEO     SUNNY     68  41  37 S22G29    30.01F
GRANITE FALLS  SUNNY     67  40  36 SE17G25   30.03F
CANBY          SUNNY     73  41  31 SE15G24   29.98S
MARSHALL       SUNNY     72  41  33 S20G26    30.00S
REDWOOD FALLS  SUNNY     67  39  35 SE20G30   30.04F
OLIVIA         SUNNY     64  39  39 SE16G22   30.05S
PIPESTONE      SUNNY     73  39  29 S15G23    30.00S
WINDOM         SUNNY     68  37  32 SE13      30.06S
WORTHINGTON    SUNNY     70  39  32 SE12      30.05S
JACKSON        SUNNY     68  37  32 S12       30.07F
TRACY          SUNNY     71  42  34 SE15G22   30.02F
SLAYTON        SUNNY     71  38  30 SE17      30.03F
$$
MNZ065>067-074>077-082>085-091>093-212200-
   South Central Minnesota

CITY           SKY/WX    TMP DP  RH WIND       PRES   REMARKS
MANKATO        SUNNY     63  37  39 SE16      30.10F
NEW ULM        SUNNY     64  43  45 SE12      30.08S
ST JAMES       SUNNY     68  37  32 E13       30.09S
FAIRMONT       SUNNY     64  39  39 SE14      30.09R
GLENCOE        SUNNY     63  43  48 E15       30.10S
FARIBAULT      SUNNY     61  41  48 E8        30.13F
OWATONNA       SUNNY     61  39  44 SE8       30.13F
WASECA         SUNNY     59  36  41 E12       30.13F
ALBERT LEA     SUNNY     63  39  42 SE8       30.12F
$$
MNZ078>079-086>088-094>096-212200-
   Southeast Minnesota

CITY           SKY/WX    TMP DP  RH WIND       PRES   REMARKS
ROCHESTER      SUNNY     56  41  57 SE7       30.17S
RED WING       SUNNY     57  37  47 SE8       30.16S
STANTON        SUNNY     59  41  50 E7        30.14S
DODGE CENTER   SUNNY     57  41  54 SE9       30.15S
WINONA         SUNNY     55  41  58 SE8       30.19S
AUSTIN         SUNNY     59  41  51 SE7G16    30.14S
PRESTON        SUNNY     55  38  53 SE8       30.17S
$$
ABBREVIATIONS USED IN REMARKS
   TC - TEMPERATURES IN CELSIUS
  WCI - WIND CHILL INDEX
   HX - HEAT INDEX
  VSB - VISIBILITY
$$



USA.gov is the U.S. government's official web portal to all federal, state and local government web resources and services.